{"data":{"norad_id":66753,"epoch":"2026-09-20T10:24:40.674240Z","epoch_age_seconds":123340,"freshness":"FRESH","line1":"1 66753U 25276CR  26263.43380410  .00002579  00000+0  16286-3 0  9999","line2":"2 66753  97.4112 333.1764 0003746  76.4843 283.6804 15.09917613 44744","mean_motion":15.09917613,"eccentricity":0.0003746,"inclination_deg":97.4112,"raan_deg":333.1764,"arg_perigee_deg":76.4843,"mean_anomaly_deg":283.6804,"bstar":0.00016286,"rev_number":4474,"period_min":95.369441855766,"perigee_km":533.86131140483,"apogee_km":539.04172112121,"semimajor_km":6914.588516263,"source":"CELESTRAK","updated_at":"2026-09-21T09:00:16.180302Z"}}